Time,TemperatureF,DewpointF,PressureIn,WindDirection,WindDirectionDegrees,WindSpeedMPH,WindSpeedGustMPH,Humidity,HourlyPrecipIn,Conditions,Clouds,dailyrainin,SoftwareType,DateUTC
2013-02-18 00:00:00,44.9,8.3,29.86,NW,306,6.0,6.0,22,0.00,,,0.00,Wunderground v.1.15,2013-02-18 07:00:00,
2013-02-18 00:10:00,44.7,8.0,29.86,WSW,249,8.0,12.0,22,0.00,,,0.00,weatherlink.com 1.10,2013-02-18 07:10:00,
2013-02-18 00:15:00,44.5,7.9,29.86,WNW,303,5.0,12.0,22,0.00,,,0.00,Wunderground v.1.15,2013-02-18 07:15:00,
2013-02-18 00:20:00,44.4,7.9,29.86,WSW,256,6.0,6.0,22,0.00,,,0.00,Wunderground v.1.15,2013-02-18 07:20:00,
2013-02-18 00:25:00,44.1,7.0,29.86,West,275,4.0,12.0,22,0.00,,,0.00,weatherlink.com 1.10,2013-02-18 07:25:00,
2013-02-18 00:30:00,43.8,8.3,29.86,WNW,290,5.0,12.0,23,0.00,,,0.00,Wunderground v.1.15,2013-02-18 07:30:00,
2013-02-18 00:35:00,43.5,8.1,29.86,WNW,284,5.0,12.0,23,0.00,,,0.00,Wunderground v.1.15,2013-02-18 07:35:00,
2013-02-18 00:41:00,43.3,8.0,29.86,West,274,4.0,10.0,23,0.00,,,0.00,weatherlink.com 1.10,2013-02-18 07:41:00,
2013-02-18 00:50:00,42.9,8.5,29.86,NW,310,5.0,5.0,24,0.00,,,0.00,Wunderground v.1.15,2013-02-18 07:50:00,
2013-02-18 00:55:00,42.7,8.0,29.86,WSW,248,2.0,9.0,24,0.00,,,0.00,weatherlink.com 1.10,2013-02-18 07:55:00,
2013-02-18 01:01:00,42.5,8.2,29.86,WSW,257,3.0,3.0,24,0.00,,,0.00,Wunderground v.1.15,2013-02-18 08:01:00,
2013-02-18 01:10:00,41.0,8.0,29.86,WNW,303,3.0,6.0,25,0.00,,,0.00,weatherlink.com 1.10,2013-02-18 08:10:00,
2013-02-18 01:15:00,40.6,8.3,29.86,West,271,2.0,4.0,26,0.00,,,0.00,Wunderground v.1.15,2013-02-18 08:15:00,
2013-02-18 01:25:00,41.1,8.0,29.86,West,278,3.0,10.0,26,0.00,,,0.00,weatherlink.com 1.10,2013-02-18 08:25:00,
2013-02-18 01:30:00,41.0,8.7,29.87,WNW,283,4.0,4.0,26,0.00,,,0.00,Wunderground v.1.15,2013-02-18 08:30:00,
2013-02-18 01:40:00,40.8,8.0,29.87,WSW,252,3.0,5.0,26,0.00,,,0.00,weatherlink.com 1.10,2013-02-18 08:40:00,
2013-02-18 01:45:00,40.8,8.5,29.87,West,281,2.0,3.0,26,0.00,,,0.00,Wunderground v.1.15,2013-02-18 08:45:00,
2013-02-18 01:50:00,40.6,8.3,29.88,WNW,285,2.0,2.0,26,0.00,,,0.00,Wunderground v.1.15,2013-02-18 08:50:00,
2013-02-18 01:56:00,40.4,8.0,29.88,West,269,2.0,4.0,26,0.00,,,0.00,weatherlink.com 1.10,2013-02-18 08:56:00,
2013-02-18 02:05:00,40.2,8.8,29.87,West,266,1.0,9.0,27,0.00,,,0.00,Wunderground v.1.15,2013-02-18 09:05:00,
2013-02-18 02:11:00,40.1,8.0,29.87,WNW,282,0.0,4.0,27,0.00,,,0.00,weatherlink.com 1.10,2013-02-18 09:11:00,
2013-02-18 02:20:00,41.9,9.5,29.87,WNW,298,4.0,9.0,26,0.00,,,0.00,Wunderground v.1.15,2013-02-18 09:20:00,
2013-02-18 02:25:00,42.5,10.0,29.87,WNW,289,10.0,12.0,26,0.00,,,0.00,weatherlink.com 1.10,2013-02-18 09:25:00,
2013-02-18 02:30:00,42.7,10.1,29.87,WNW,283,6.0,9.0,26,0.00,,,0.00,Wunderground v.1.15,2013-02-18 09:30:00,
2013-02-18 02:35:00,42.8,10.2,29.87,WNW,300,6.0,9.0,26,0.00,,,0.00,Wunderground v.1.15,2013-02-18 09:35:00,
2013-02-18 02:41:00,42.6,10.0,29.87,WNW,302,3.0,11.0,26,0.00,,,0.00,weatherlink.com 1.10,2013-02-18 09:41:00,
2013-02-18 02:50:00,42.5,10.0,29.87,NW,313,5.0,9.0,26,0.00,,,0.00,Wunderground v.1.15,2013-02-18 09:50:00,
2013-02-18 02:55:00,42.3,10.0,29.87,WSW,254,7.0,9.0,27,0.00,,,0.00,weatherlink.com 1.10,2013-02-18 09:55:00,
2013-02-18 03:00:00,42.3,10.6,29.87,WNW,290,5.0,9.0,27,0.00,,,0.00,Wunderground v.1.15,2013-02-18 10:00:00,
2013-02-18 03:10:00,41.7,10.1,29.87,WNW,298,3.0,9.0,27,0.00,,,0.00,Wunderground v.1.15,2013-02-18 10:10:00,
2013-02-18 03:15:00,41.3,10.6,29.88,West,272,2.0,9.0,28,0.00,,,0.00,Wunderground v.1.15,2013-02-18 10:15:00,
2013-02-18 03:20:00,41.1,10.4,29.88,West,262,2.0,9.0,28,0.00,,,0.00,Wunderground v.1.15,2013-02-18 10:20:00,
2013-02-18 03:25:00,40.8,10.2,29.88,West,275,2.0,9.0,28,0.00,,,0.00,Wunderground v.1.15,2013-02-18 10:25:00,
2013-02-18 03:30:00,40.4,10.6,29.88,WNW,286,2.0,2.0,29,0.00,,,0.00,Wunderground v.1.15,2013-02-18 10:30:00,
2013-02-18 03:35:00,40.1,10.3,29.88,West,274,2.0,9.0,29,0.00,,,0.00,Wunderground v.1.15,2013-02-18 10:35:00,
2013-02-18 03:41:00,39.7,10.0,29.89,WNW,285,0.0,6.0,29,0.00,,,0.00,weatherlink.com 1.10,2013-02-18 10:41:00,
2013-02-18 03:50:00,38.5,10.4,29.89,WNW,297,0.0,9.0,31,0.00,,,0.00,Wunderground v.1.15,2013-02-18 10:50:00,
2013-02-18 03:55:00,38.1,10.1,29.89,WNW,293,1.0,9.0,31,0.00,,,0.00,Wunderground v.1.15,2013-02-18 10:55:00,
2013-02-18 04:00:00,37.8,10.5,29.89,NW,325,1.0,9.0,32,0.00,,,0.00,Wunderground v.1.15,2013-02-18 11:00:00,
2013-02-18 04:05:00,38.5,11.8,29.90,WNW,290,2.0,9.0,33,0.00,,,0.00,Wunderground v.1.15,2013-02-18 11:05:00,
2013-02-18 04:11:00,39.6,12.0,29.91,North,350,5.0,9.0,32,0.00,,,0.00,weatherlink.com 1.10,2013-02-18 11:11:00,
2013-02-18 04:20:00,40.2,12.6,29.91,WNW,299,3.0,3.0,32,0.00,,,0.00,Wunderground v.1.15,2013-02-18 11:20:00,
2013-02-18 04:25:00,40.0,13.2,29.91,NW,325,3.0,9.0,33,0.00,,,0.00,Wunderground v.1.15,2013-02-18 11:25:00,
2013-02-18 04:30:00,39.7,12.9,29.91,NW,304,2.0,9.0,33,0.00,,,0.00,Wunderground v.1.15,2013-02-18 11:30:00,
2013-02-18 04:35:00,39.5,13.4,29.91,NW,306,1.0,9.0,34,0.00,,,0.00,Wunderground v.1.15,2013-02-18 11:35:00,
2013-02-18 04:41:00,39.1,13.0,29.92,NE,39,1.0,3.0,34,0.00,,,0.00,weatherlink.com 1.10,2013-02-18 11:41:00,
2013-02-18 04:50:00,38.7,14.0,29.92,WSW,248,2.0,9.0,36,0.00,,,0.00,Wunderground v.1.15,2013-02-18 11:50:00,
2013-02-18 04:55:00,38.9,14.8,29.93,NW,307,3.0,9.0,37,0.00,,,0.00,Wunderground v.1.15,2013-02-18 11:55:00,
2013-02-18 05:05:00,39.0,16.1,29.93,South,188,4.0,9.0,39,0.00,,,0.00,Wunderground v.1.15,2013-02-18 12:05:00,
2013-02-18 05:10:00,38.8,16.5,29.94,WNW,302,4.0,4.0,40,0.00,,,0.00,Wunderground v.1.15,2013-02-18 12:10:00,
2013-02-18 05:15:00,38.5,16.2,29.94,NW,311,4.0,9.0,40,0.00,,,0.00,Wunderground v.1.15,2013-02-18 12:15:00,
2013-02-18 05:20:00,38.3,16.1,29.95,NNE,15,3.0,9.0,40,0.00,,,0.00,Wunderground v.1.15,2013-02-18 12:20:00,
2013-02-18 05:26:00,37.9,16.0,29.95,NNE,32,3.0,10.0,41,0.00,,,0.00,weatherlink.com 1.10,2013-02-18 12:26:00,
2013-02-18 05:35:00,38.0,16.9,29.96,NNE,28,5.0,9.0,42,0.00,,,0.00,Wunderground v.1.15,2013-02-18 12:35:00,
2013-02-18 05:40:00,37.9,16.8,29.97,NW,320,5.0,9.0,42,0.00,,,0.00,Wunderground v.1.15,2013-02-18 12:40:00,
2013-02-18 05:45:00,37.8,16.7,29.97,WNW,302,4.0,9.0,42,0.00,,,0.00,Wunderground v.1.15,2013-02-18 12:45:00,
2013-02-18 05:55:00,37.3,16.8,29.98,NNW,335,2.0,9.0,43,0.00,,,0.00,Wunderground v.1.15,2013-02-18 12:55:00,
2013-02-18 06:00:00,37.0,16.5,29.98,East,92,2.0,2.0,43,0.00,,,0.00,Wunderground v.1.15,2013-02-18 13:00:00,
2013-02-18 06:10:00,36.4,17.1,29.98,North,1,1.0,1.0,45,0.00,,,0.00,Wunderground v.1.15,2013-02-18 13:10:00,
2013-02-18 06:15:00,36.0,16.7,29.99,NNW,339,1.0,9.0,45,0.00,,,0.00,Wunderground v.1.15,2013-02-18 13:15:00,
2013-02-18 06:25:00,35.3,16.6,29.99,NW,318,0.0,9.0,46,0.00,,,0.00,Wunderground v.1.15,2013-02-18 13:25:00,
2013-02-18 06:30:00,35.1,16.9,29.99,NW,319,0.0,9.0,47,0.00,,,0.00,Wunderground v.1.15,2013-02-18 13:30:00,
2013-02-18 06:35:00,34.9,16.7,30.00,NW,312,0.0,9.0,47,0.00,,,0.00,Wunderground v.1.15,2013-02-18 13:35:00,
2013-02-18 06:41:00,34.6,16.0,30.00,WNW,303,1.0,3.0,47,0.00,,,0.00,weatherlink.com 1.10,2013-02-18 13:41:00,
2013-02-18 06:50:00,34.5,16.8,30.00,NW,323,1.0,9.0,48,0.00,,,0.00,Wunderground v.1.15,2013-02-18 13:50:00,
2013-02-18 06:55:00,34.2,16.5,30.01,NW,311,1.0,9.0,48,0.00,,,0.00,Wunderground v.1.15,2013-02-18 13:55:00,
2013-02-18 07:00:00,34.1,16.4,30.01,NW,318,1.0,1.0,48,0.00,,,0.00,Wunderground v.1.15,2013-02-18 14:00:00,
2013-02-18 07:05:00,33.9,16.3,30.01,NNW,343,1.0,9.0,48,0.00,,,0.00,Wunderground v.1.15,2013-02-18 14:05:00,
2013-02-18 07:10:00,34.1,15.9,30.02,WNW,287,1.0,9.0,47,0.00,,,0.00,Wunderground v.1.15,2013-02-18 14:10:00,
2013-02-18 07:20:00,35.4,16.1,30.03,NE,46,1.0,1.0,45,0.00,,,0.00,Wunderground v.1.15,2013-02-18 14:20:00,
2013-02-18 07:25:00,36.0,16.7,30.03,ESE,111,1.0,9.0,45,0.00,,,0.00,Wunderground v.1.15,2013-02-18 14:25:00,
2013-02-18 07:30:00,36.6,16.2,30.04,East,85,1.0,1.0,43,0.00,,,0.00,Wunderground v.1.15,2013-02-18 14:30:00,
2013-02-18 07:35:00,36.9,15.9,30.04,East,93,0.0,9.0,42,0.00,,,0.00,Wunderground v.1.15,2013-02-18 14:35:00,
2013-02-18 07:40:00,37.3,15.7,30.04,ENE,62,0.0,9.0,41,0.00,,,0.00,Wunderground v.1.15,2013-02-18 14:40:00,
2013-02-18 07:50:00,37.1,14.4,30.05,NNE,20,1.0,9.0,39,0.00,,,0.00,Wunderground v.1.15,2013-02-18 14:50:00,
2013-02-18 07:57:00,36.6,11.0,30.06,NE,40,1.0,8.0,35,0.00,,,0.00,weatherlink.com 1.10,2013-02-18 14:57:00,
2013-02-18 08:05:00,36.5,10.1,30.07,WNW,290,3.0,9.0,33,0.00,,,0.00,Wunderground v.1.15,2013-02-18 15:05:00,
2013-02-18 08:10:00,36.5,8.7,30.07,NNW,345,4.0,9.0,31,0.00,,,0.00,Wunderground v.1.15,2013-02-18 15:10:00,
2013-02-18 08:20:00,36.8,8.2,30.07,NNW,347,4.0,9.0,30,0.00,,,0.00,Wunderground v.1.15,2013-02-18 15:20:00,
2013-02-18 08:25:00,37.2,7.8,30.07,NNW,331,3.0,9.0,29,0.00,,,0.00,Wunderground v.1.15,2013-02-18 15:25:00,
2013-02-18 08:35:00,37.4,7.2,30.08,NW,318,5.0,5.0,28,0.00,,,0.00,Wunderground v.1.15,2013-02-18 15:35:00,
2013-02-18 08:42:00,37.9,5.0,30.08,NW,326,11.0,17.0,25,0.00,,,0.00,weatherlink.com 1.10,2013-02-18 15:42:00,
2013-02-18 08:50:00,38.0,4.3,30.08,ENE,64,6.0,8.0,24,0.00,,,0.00,Wunderground v.1.15,2013-02-18 15:50:00,
2013-02-18 08:55:00,38.1,3.5,30.08,NNE,15,7.0,8.0,23,0.00,,,0.00,Wunderground v.1.15,2013-02-18 15:55:00,
2013-02-18 09:05:00,38.4,2.8,30.09,NE,40,8.0,8.0,22,0.00,,,0.00,Wunderground v.1.15,2013-02-18 16:05:00,
2013-02-18 09:10:00,38.5,2.9,30.09,North,352,9.0,9.0,22,0.00,,,0.00,Wunderground v.1.15,2013-02-18 16:10:00,
2013-02-18 09:20:00,38.9,2.2,30.09,North,349,7.0,7.0,21,0.00,,,0.00,Wunderground v.1.15,2013-02-18 16:20:00,
2013-02-18 09:25:00,39.4,3.6,30.09,NNW,343,6.0,7.0,22,0.00,,,0.00,Wunderground v.1.15,2013-02-18 16:25:00,
2013-02-18 09:35:00,40.1,3.2,30.09,NW,307,5.0,6.0,21,0.00,,,0.00,Wunderground v.1.15,2013-02-18 16:35:00,
2013-02-18 09:40:00,40.3,2.3,30.09,NNW,345,6.0,11.0,20,0.00,,,0.00,Wunderground v.1.15,2013-02-18 16:40:00,
2013-02-18 09:45:00,40.6,2.6,30.09,SW,214,7.0,11.0,20,0.00,,,0.00,Wunderground v.1.15,2013-02-18 16:45:00,
2013-02-18 09:55:00,41.0,2.9,30.09,NW,307,6.0,11.0,20,0.00,,,0.00,Wunderground v.1.15,2013-02-18 16:55:00,
2013-02-18 10:05:00,41.5,4.4,30.09,NNE,25,5.0,11.0,21,0.00,,,0.00,Wunderground v.1.15,2013-02-18 17:05:00,
2013-02-18 10:10:00,41.4,3.3,30.09,NNE,17,4.0,11.0,20,0.00,,,0.00,Wunderground v.1.15,2013-02-18 17:10:00,
2013-02-18 10:15:00,41.7,3.5,30.09,North,350,4.0,11.0,20,0.00,,,0.00,Wunderground v.1.15,2013-02-18 17:15:00,
2013-02-18 10:20:00,42.4,3.0,30.09,North,349,4.0,11.0,19,0.00,,,0.00,Wunderground v.1.15,2013-02-18 17:20:00,
2013-02-18 10:27:00,42.5,2.0,30.09,NW,307,3.0,10.0,18,0.00,,,0.00,weatherlink.com 1.10,2013-02-18 17:27:00,
2013-02-18 10:35:00,43.7,1.6,30.09,NW,321,3.0,11.0,17,0.00,,,0.00,Wunderground v.1.15,2013-02-18 17:35:00,
2013-02-18 10:40:00,43.7,-1.0,30.09,West,261,5.0,11.0,15,0.00,,,0.00,Wunderground v.1.15,2013-02-18 17:40:00,
2013-02-18 10:45:00,43.5,-2.6,30.09,WNW,284,8.0,11.0,14,0.00,,,0.00,Wunderground v.1.15,2013-02-18 17:45:00,
2013-02-18 10:50:00,43.3,-2.8,30.08,West,259,10.0,10.0,14,0.00,,,0.00,Wunderground v.1.15,2013-02-18 17:50:00,
2013-02-18 10:55:00,43.6,-2.6,30.08,SE,124,8.0,11.0,14,0.00,,,0.00,Wunderground v.1.15,2013-02-18 17:55:00,
2013-02-18 11:05:00,44.6,-3.3,30.08,WNW,286,6.0,9.0,13,0.00,,,0.00,Wunderground v.1.15,2013-02-18 18:05:00,
2013-02-18 11:12:00,45.1,-3.0,30.09,East,91,4.0,14.0,13,0.00,,,0.00,weatherlink.com 1.10,2013-02-18 18:12:00,
2013-02-18 11:20:00,44.7,-4.9,30.09,NW,320,7.0,7.0,12,0.00,,,0.00,Wunderground v.1.15,2013-02-18 18:20:00,
2013-02-18 11:28:00,45.5,-5.0,30.09,North,8,2.0,12.0,12,0.00,,,0.00,weatherlink.com 1.10,2013-02-18 18:28:00,
2013-02-18 11:35:00,45.8,-4.0,30.08,West,259,5.0,11.0,12,0.00,,,0.00,Wunderground v.1.15,2013-02-18 18:35:00,
2013-02-18 11:42:00,46.1,-8.0,30.08,North,356,6.0,15.0,10,0.00,,,0.00,weatherlink.com 1.10,2013-02-18 18:42:00,
2013-02-18 11:50:00,46.3,-7.4,30.07,NE,46,6.0,11.0,10,0.00,,,0.00,Wunderground v.1.15,2013-02-18 18:50:00,
2013-02-18 11:58:00,47.0,-7.0,30.07,NW,325,7.0,13.0,10,0.00,,,0.00,weatherlink.com 1.10,2013-02-18 18:58:00,
2013-02-18 12:05:00,47.2,-6.7,30.06,WNW,286,6.0,11.0,10,0.00,,,0.00,Wunderground v.1.15,2013-02-18 19:05:00,
2013-02-18 12:10:00,47.4,-8.7,30.06,West,278,8.0,8.0,9,0.00,,,0.00,Wunderground v.1.15,2013-02-18 19:10:00,
2013-02-18 12:20:00,47.8,-10.8,30.06,WNW,298,5.0,5.0,8,0.00,,,0.00,Wunderground v.1.15,2013-02-18 19:20:00,
2013-02-18 12:25:00,48.3,-10.5,30.06,West,273,5.0,11.0,8,0.00,,,0.00,Wunderground v.1.15,2013-02-18 19:25:00,
2013-02-18 12:30:00,48.1,-13.3,30.06,WSW,248,7.0,7.0,7,0.00,,,0.00,Wunderground v.1.15,2013-02-18 19:30:00,
2013-02-18 12:35:00,48.3,-13.1,30.05,NNW,343,6.0,11.0,7,0.00,,,0.00,Wunderground v.1.15,2013-02-18 19:35:00,
2013-02-18 12:43:00,49.2,-13.0,30.05,North,352,5.0,16.0,7,0.00,,,0.00,weatherlink.com 1.10,2013-02-18 19:43:00,
2013-02-18 12:50:00,49.1,-15.6,30.05,WNW,303,6.0,11.0,6,0.00,,,0.00,Wunderground v.1.15,2013-02-18 19:50:00,
2013-02-18 12:58:00,49.5,-19.0,30.04,NNW,347,8.0,15.0,5,0.00,,,0.00,weatherlink.com 1.10,2013-02-18 19:58:00,
2013-02-18 13:05:00,49.7,-15.2,30.04,West,274,7.0,11.0,6,0.00,,,0.00,Wunderground v.1.15,2013-02-18 20:05:00,
2013-02-18 13:13:00,49.4,-16.0,30.04,NW,311,6.0,15.0,6,0.00,,,0.00,weatherlink.com 1.10,2013-02-18 20:13:00,
2013-02-18 13:20:00,49.5,-15.3,30.03,WNW,293,7.0,7.0,6,0.00,,,0.00,Wunderground v.1.15,2013-02-18 20:20:00,
2013-02-18 13:25:00,49.5,-12.2,30.03,North,351,5.0,11.0,7,0.00,,,0.00,Wunderground v.1.15,2013-02-18 20:25:00,
2013-02-18 13:35:00,50.5,-11.5,30.03,WNW,297,5.0,11.0,7,0.00,,,0.00,Wunderground v.1.15,2013-02-18 20:35:00,
2013-02-18 13:43:00,50.4,-15.0,30.03,West,278,3.0,9.0,6,0.00,,,0.00,weatherlink.com 1.10,2013-02-18 20:43:00,
2013-02-18 13:58:00,50.6,-15.0,30.02,NW,326,2.0,11.0,6,0.00,,,0.00,weatherlink.com 1.10,2013-02-18 20:58:00,
2013-02-18 14:13:00,50.6,-15.0,30.02,WNW,290,9.0,14.0,6,0.00,,,0.00,weatherlink.com 1.10,2013-02-18 21:13:00,
2013-02-18 14:28:00,51.3,-14.0,30.02,West,281,6.0,12.0,6,0.00,,,0.00,weatherlink.com 1.10,2013-02-18 21:28:00,
2013-02-18 14:43:00,52.2,-14.0,30.02,WNW,301,5.0,13.0,6,0.00,,,0.00,weatherlink.com 1.10,2013-02-18 21:43:00,
2013-02-18 14:58:00,52.2,-14.0,30.02,West,268,4.0,14.0,6,0.00,,,0.00,weatherlink.com 1.10,2013-02-18 21:58:00,
2013-02-18 15:13:00,51.9,-18.0,30.02,North,349,2.0,14.0,5,0.00,,,0.00,weatherlink.com 1.10,2013-02-18 22:13:00,
2013-02-18 15:28:00,51.9,-18.0,30.02,WSW,255,5.0,14.0,5,0.00,,,0.00,weatherlink.com 1.10,2013-02-18 22:28:00,
2013-02-18 15:43:00,51.9,-22.0,30.02,NW,307,7.0,17.0,4,0.00,,,0.00,weatherlink.com 1.10,2013-02-18 22:43:00,
2013-02-18 15:58:00,51.6,-22.0,30.02,North,354,4.0,16.0,4,0.00,,,0.00,weatherlink.com 1.10,2013-02-18 22:58:00,
2013-02-18 16:14:00,52.1,-22.0,30.02,WNW,293,9.0,12.0,4,0.00,,,0.00,weatherlink.com 1.10,2013-02-18 23:14:00,
2013-02-18 16:29:00,51.6,-22.0,30.02,NNW,335,6.0,13.0,4,0.00,,,0.00,weatherlink.com 1.10,2013-02-18 23:29:00,
2013-02-18 16:44:00,51.2,-18.0,30.03,NW,315,4.0,15.0,5,0.00,,,0.00,weatherlink.com 1.10,2013-02-18 23:44:00,
2013-02-18 16:59:00,51.0,-23.0,30.03,NNW,340,9.0,15.0,4,0.00,,,0.00,weatherlink.com 1.10,2013-02-18 23:59:00,
2013-02-18 17:14:00,50.4,-23.0,30.02,WSW,238,4.0,11.0,4,0.00,,,0.00,weatherlink.com 1.10,2013-02-19 00:14:00,
2013-02-18 17:29:00,49.5,-19.0,30.02,North,352,4.0,11.0,5,0.00,,,0.00,weatherlink.com 1.10,2013-02-19 00:29:00,
2013-02-18 17:44:00,47.8,-20.0,30.02,NW,311,3.0,14.0,5,0.00,,,0.00,weatherlink.com 1.10,2013-02-19 00:44:00,
2013-02-18 17:59:00,46.2,-22.0,30.02,NW,313,3.0,10.0,5,0.00,,,0.00,weatherlink.com 1.10,2013-02-19 00:59:00,
2013-02-18 18:14:00,45.3,-19.0,30.03,NE,34,3.0,14.0,6,0.00,,,0.00,weatherlink.com 1.10,2013-02-19 01:14:00,
2013-02-18 18:29:00,44.2,-20.0,30.04,ENE,76,2.0,5.0,6,0.00,,,0.00,weatherlink.com 1.10,2013-02-19 01:29:00,
2013-02-18 18:44:00,43.2,-17.0,30.05,ENE,58,0.0,7.0,7,0.00,,,0.00,weatherlink.com 1.10,2013-02-19 01:44:00,
2013-02-18 18:59:00,42.5,-18.0,30.06,NE,37,1.0,7.0,7,0.00,,,0.00,weatherlink.com 1.10,2013-02-19 01:59:00,
2013-02-18 19:14:00,41.4,-19.0,30.07,ENE,58,0.0,5.0,7,0.00,,,0.00,weatherlink.com 1.10,2013-02-19 02:14:00,
2013-02-18 19:30:00,40.5,-17.0,30.08,ESE,120,0.0,1.0,8,0.00,,,0.00,weatherlink.com 1.10,2013-02-19 02:30:00,
2013-02-18 19:45:00,40.4,-17.0,30.08,East,84,0.0,1.0,8,0.00,,,0.00,weatherlink.com 1.10,2013-02-19 02:45:00,
2013-02-18 20:00:00,40.1,-17.0,30.08,NNW,329,2.0,3.0,8,0.00,,,0.00,weatherlink.com 1.10,2013-02-19 03:00:00,
2013-02-18 20:30:00,38.1,-16.0,30.09,NNW,347,0.0,1.0,9,0.00,,,0.00,weatherlink.com 1.10,2013-02-19 03:30:00,
2013-02-18 20:45:00,36.8,-15.0,30.10,NNW,338,0.0,1.0,10,0.00,,,0.00,weatherlink.com 1.10,2013-02-19 03:45:00,
2013-02-18 21:00:00,36.0,-16.0,30.11,NW,319,0.0,2.0,10,0.00,,,0.00,weatherlink.com 1.10,2013-02-19 04:00:00,
2013-02-18 21:15:00,35.5,-14.0,30.11,NW,309,1.0,4.0,11,0.00,,,0.00,weatherlink.com 1.10,2013-02-19 04:15:00,
2013-02-18 21:30:00,35.2,-15.0,30.11,NW,319,1.0,3.0,11,0.00,,,0.00,weatherlink.com 1.10,2013-02-19 04:30:00,
2013-02-18 21:45:00,33.7,-12.0,30.11,NW,323,1.0,1.0,13,0.00,,,0.00,weatherlink.com 1.10,2013-02-19 04:45:00,
2013-02-18 22:00:00,33.9,-12.0,30.11,North,11,0.0,5.0,13,0.00,,,0.00,weatherlink.com 1.10,2013-02-19 05:00:00,
2013-02-18 22:15:00,33.9,-11.0,30.11,WNW,303,0.0,3.0,14,0.00,,,0.00,weatherlink.com 1.10,2013-02-19 05:15:00,
2013-02-18 22:30:00,33.9,-11.0,30.12,NW,316,2.0,4.0,14,0.00,,,0.00,weatherlink.com 1.10,2013-02-19 05:30:00,
2013-02-18 22:45:00,34.0,-11.0,30.11,NW,314,0.0,5.0,14,0.00,,,0.00,weatherlink.com 1.10,2013-02-19 05:45:00,
2013-02-18 23:01:00,33.5,-11.0,30.12,WNW,288,3.0,4.0,14,0.00,,,0.00,weatherlink.com 1.10,2013-02-19 06:01:00,
2013-02-18 23:16:00,32.8,-12.0,30.12,WNW,287,3.0,6.0,14,0.00,,,0.00,weatherlink.com 1.10,2013-02-19 06:16:00,
2013-02-18 23:31:00,31.8,-11.0,30.12,NW,315,1.0,2.0,15,0.00,,,0.00,weatherlink.com 1.10,2013-02-19 06:31:00,
2013-02-18 23:46:00,31.0,-10.0,30.13,East,95,0.0,1.0,16,0.00,,,0.00,weatherlink.com 1.10,2013-02-19 06:46:00,